Weather in Trakai

Lithuania     54°38′25″N   24°56′04″E
temp.,
°C
wind,
m/s
gust,
m/s
humid.,
%
clouds,
%
prec.,
mm/h
press.,
hPa
HPBL,
m
28 july, wed
wed2800:00+18s3697100 1.7 1012149
03:00+17sw2396100 1.7 101148
06:00+17wsw22965 0.0 101221
09:00+21w238436 0.0 1012349
12:00+26wsw345855 0.0 10111068
15:00+27w4650100 0.0 10111911
18:00+26w46553 0.0 10101614
21:00+22wsw22707 0.0 101012
29 july, thu
thu2900:00+19s2273100 0.0 100915
03:00+18wsw3885100 0.2 1010195
06:00+18sse1195100 4.9 100927
09:00+18ssw3696100 5.3 1008338
12:00+21w468192 0.3 1008827
15:00+26w465153 0.0 10082006
18:00+25w4757100 0.0 10071576
21:00+20w227563 0.1 100824
30 july, fri
fri3000:00+18w34817 0.0 100979
03:00+17wnw258463 0.1 1009150
06:00+15sw23897 0.0 100844
09:00+20wsw510656 0.0 1008928
12:00+22wsw61044100 0.0 10082109
15:00+21w51054100 0.0 10071353
18:00+20wsw4864100 0.0 1006527
21:00+18sw411640 0.0 1006368
31 july, sat
sat3100:00+15sw4127328 0.0 1006267
03:00+13sw38850 0.0 1006141
06:00+13sw388041 0.0 1007141
09:00+18sw4764100 0.0 1007374
12:00+21sw4753100 0.0 1007766
15:00+25wsw5847100 0.0 10051677
18:00+18s2286100 0.6 100437
21:00+18ssw379463 1.4 1004214
1 august, sun
sun100:00+16wsw3494100 0.1 100564
03:00+14w36940 0.1 100599
06:00+12sw411930 0.0 1006224
09:00+17sw510776 0.0 1007592
12:00+21wsw686042 0.0 10081411
15:00+22w5757100 0.0 10081719
18:00+23w3656100 0.0 10081635
21:00+17nne1176100 0.1 100812